Location: Kailua
(21.4020°N, 157.7390°W)
Time: 17:44:38
(UTC-10:00)

Cosmos 2297 Rocket - Visible Passes

Search period start: 28 August 2016 00:00
Search period end: 07 September 2016 00:00
Orbit: 840 x 843 km, 71.0° (Epoch: 27 August)

Date Brightness Start Highest point End Pass type
(mag) Time Alt. Az. Time Alt. Az. Time Alt. Az.
28 Aug 3.2 19:49:22 10° N 19:54:07 27° ENE 19:55:49 23° E visible
28 Aug 4.0 21:33:24 10° NW 21:37:40 25° W 21:37:40 25° W visible
29 Aug 3.2 19:34:23 10° NNE 19:39:01 26° ENE 19:41:53 17° ESE visible
29 Aug 3.9 21:18:13 10° NW 21:22:51 27° WSW 21:23:44 26° WSW visible
30 Aug 3.3 19:19:25 10° NNE 19:23:55 24° ENE 19:28:04 11° ESE visible
30 Aug 3.9 21:03:01 10° NW 21:07:47 29° WSW 21:09:57 22° SW visible
31 Aug 3.4 19:04:27 10° NNE 19:08:49 23° ENE 19:13:09 10° ESE visible
31 Aug 3.8 20:47:50 10° NW 20:52:43 31° WSW 20:56:19 16° SSW visible
01 Sep 3.7 20:32:39 10° NW 20:37:38 33° WSW 20:42:37 10° SSW visible
02 Sep 3.7 20:17:30 10° NW 20:22:34 35° WSW 20:27:38 10° SSW visible
03 Sep 3.6 20:02:20 10° NW 20:07:30 38° WSW 20:12:39 10° S visible
04 Sep 3.5 19:47:11 10° NW 19:52:25 40° WSW 19:57:40 10° S visible
05 Sep 3.4 19:32:02 10° NW 19:37:21 43° WSW 19:42:40 10° S visible
06 Sep 3.4 19:16:54 10° NNW 19:22:17 46° WSW 19:27:39 10° S visible
